www.pogodaiklimat.ru

Погода и климат >> Архив погоды >> Индия >> Imphal


ПОГОДА в Imphal

  • Прогноз погоды в Imphal
  • Монитор погоды в Imphal
  • Климат города

АРХИВ ПОГОДЫ в Imphal

Время (UTC), дата Ветер
(напр.,м/с)
 
Видим.   Явления Облачность Т
(С)
Тd
(С)
f
(%)
Тe
(С)
Тes
(С)
Комфортность P
(гПа)
Po
(гПа)
Тmin
(С)
Tmax
(С)
R
(мм)
R24
(мм)
S
(см)
00 11.07 СЗ 2 2000 м слабый дождь 10/6 240 м
[Frnb As op]
+22.4 +22.1 98 +30 +30 очень
душно
1001.4 916.4 4
03 11.07 штиль 0 4000 м дымка {дождь} 9/5 540 м
[Sc diur, vesp Ac trans]
+25.4 +23.7 90 +35 +39 очень
душно
1001.5 917.3 +21.6 15
06 11.07 СЗ 2 4000 м дымка 9/5 540 м
[Sc Ac trans]
+27.2 +24.4 85 +38 +44 очень
душно
999.8 916.3
09 11.07 штиль 0 50 км в посл. час дождь ?/? +27.4 +25.5 89 +40 +40 очень
душно
998.1 914.6 3
12 11.07 штиль 0 50 км дымка {дождь} ?/? +26.8 +22.8 79 +36 +36 очень
душно
998.2 914.5 +30.0 3
15 11.07 штиль 0 4000 м дымка 8/5 540 м
[Sc Ac trans]
+25.8 +24.4 92 +36 +36 очень
душно
1000.0 915.9 3
00 12.07 штиль 0 2000 м дымка 9/6 240 м
[Frnb Ac trans]
+22.8 +21.9 95 +31 +31 очень
душно
1001.0 916.0 3
03 12.07 штиль 0 4000 м дымка 9/6 240 м
[Frnb Ac trans]
+25.4 +23.7 90 +35 +39 очень
душно
1001.4 917.2 +22.6 3
06 12.07 ЮВ 2 4000 м дымка 9/6 240 м
[Frnb Ac trans]
+26.2 +23.7 86 +36 +41 очень
душно
1000.7 916.7
09 12.07 В 3 4000 м мгла 8/5 540 м
[Sc Ac trans]
+29.0 +24.0 74 +40 +43 очень
душно
997.4 914.3
12 12.07 В 3 4000 м мгла 8/5 540 м
[Sc Ac trans]
+28.0 +22.9 74 +37 +37 очень
душно
996.7 913.4 +29.5
15 12.07 В 1 2000 м дымка 5/3 540 м
[Sc Ac trans]
+25.2 +23.2 89 +34 +34 очень
душно
1000.4 915.8
00 13.07 СВ 2 2000 м дымка 9/5 300 м
[Frnb Ac trans]
+23.6 +22.7 95 +31 +31 очень
душно
999.9 915.3 0.4
03 13.07 ЮВ 2 4000 м дымка 9/5 300 м
[Frnb Ac trans]
+27.0 +24.2 85 +38 +42 очень
душно
1000.6 916.8 +25.2 0.4
06 13.07 ЮВ 2 4000 м дымка 9/5 540 м
[Sc Ac trans]
+28.6 +24.1 77 +40 +46 очень
душно
1000.3 917.0
09 13.07 Ю 4 4000 м дымка {дождь} 9/5 540 м
[Sc diur, vesp Ac trans]
+27.0 +23.3 80 +36 +38 очень
душно
998.9 915.2 0.0
12 13.07 Ю 2 4000 м 8/5 540 м
[Sc diur, vesp Ac trans]
+28.6 +22.6 70 +38 +38 очень
душно
997.3 914.2 +29.0 0.0
03 14.07 штиль 0 4000 м дымка 9/6 540 м
[Sc diur, vesp Ac trans]
+27.0 +22 +26 комфорт 1000.6 1023.6 +22.4 0.0
06 14.07 Ю 2 4000 м дымка 9/5 540 м
[Sc diur, vesp Ac trans]
+28.8 +24.6 78 +41 +47 опасность
перегрева
999.3 999.0
09 14.07 0 мгла н/о +31.6 996.5 951.5
12 14.07 ЮВ 3 4000 м дымка 6/4 540 м
[Sc Ac trans]
+27.4 +22.5 75 +36 +36 очень
душно
996.5 913.2 +32.0
15 14.07 СВ 1 2000 м дымка 6/4 540 м
[Sc Ac trans]
+25.6 +22.4 83 +34 +34 очень
душно
1000.0 915.9
00 15.07 СВ 2 2000 м дымка 8/5 540 м
[Sc Ac trans]
+23.4 +22.2 93 +32 +32 очень
душно
1000.0 915.4 0.2
03 15.07 СВ 2 2000 м мгла 9/5 540 м
[Sc Ac trans]
+26.4 +23.0 82 +35 +39 очень
душно
1000.6 916.8 +22.6 0.2
06 15.07 ЮВ 3 4000 м дымка 9/6 540 м
[Sc Ac trans]
+29.0 +24.3 76 +41 +45 опасность
перегрева
999.6 916.3
09 15.07 ЮВ 4 4000 м мгла 9/6 540 м
[Sc diur, vesp Ac trans]
+27.8 +23.0 75 +37 +39 очень
душно
998.8 915.3
12 15.07 ЮВ 4 4000 м мгла 9/6 540 м
[Sc Ac trans]
+27.0 +22.1 75 +35 +35 очень
душно
998.2 914.6 +29.6
15 15.07 З 2 4000 м дымка {дождь} 9/6 540 м
[Sc Ac trans]
+25.0 +22.1 84 +32 +32 очень
душно
1001.9 917.4 0.1
00 16.07 штиль 0 2000 м дымка {дождь} 9/6 240 м
[Frnb Ac trans]
+23.6 +22.4 93 +31 +31 очень
душно
1000.6 916.0 0.1
03 16.07 штиль 0 4000 м дымка 10/8 240 м
[Frnb As op]
+27.0 +23.3 80 +36 +37 очень
душно
1001.8 917.8 +22.6 0.2
06 16.07 З 2 4000 м дымка {дождь} 8/5 540 м
[Sc diur, vesp Ac trans]
+27.4 +24.6 85 +39 +46 очень
душно
1001.0 917.4 5
09 16.07 0 дымка {дождь} н/о +28.6 998.4 915.2 15
12 16.07 ЮВ 4 4000 м дымка 8/5 540 м
[Sc Ac trans]
+28.0 +23.8 78 +39 +39 очень
душно
997.6 914.3 +29.0 15
15 16.07 Ю 1 2000 м дымка 8/5 540 м
[Sc Ac trans]
+25.4 +23.4 89 +34 +34 очень
душно
1001.5 917.3 15
00 17.07 штиль 0 4000 м дымка 9/6 300 м
[Frnb Ac trans]
+23.2 +22.6 96 +32 +32 очень
душно
1001.8 917.0 15
03 17.07 штиль 0 4000 м дымка 9/6 480 м
[Sc diur, vesp Ac trans]
+27.2 +23.2 79 +37 +41 очень
душно
1001.3 917.7 +22.8 15
06 17.07 Ю 4 4000 м дымка 9/6 540 м
[Sc diur, vesp Ac trans]
+28.2 +24.3 79 +39 +43 очень
душно
1000.6 917.2
09 17.07 0 мгла н/о +24.3 998.6 915.6
12 17.07 штиль 0 4000 м дымка {метель} 9/5 540 м
[Sc diur, vesp Ac trans Ci fib]
+27.4 +23.7 80 +37 +38 очень
душно
998.8 914.6 +29.8
15 17.07 штиль 0 2000 м дымка 9/5 540 м
[Sc Ac trans]
+26.0 +22.9 83 +35 +35 очень
душно
1000.8 916.7

 

Местоположение метеостанции Imphal (Manipur, Индия): широта 24.67 долгота 93.90 высота над уровнем моря 774 м.

В архиве по умолчанию представлена погода в Imphal за последнюю неделю. Архивные данные за месяц целиком и за предыдущие месяцы, начиная с января 2011 года, Вы можете получить, выбрав интересующий диапазон дат из раскрывающегося списка и нажав кнопку "Ввод!".


*Определитесь, кто Вы:
робот инопланетянин человек

Внимание! Время в таблицах - всемирное. Для получения местного времени необходимо прибавить поправку, которая в Imphal равна 5.5 ч.

Смотрите также архив погоды в соседних городах и на ближайших метеорологических станциях:

Погода в Haflong (Assam, Индия) (105 км)
Погода в Homalin (Мьянма) (105 км)
Погода в Kohima (Nagaland, Индия) (110 км)
Погода в Silchar (Assam, Индия) (112 км)
Погода в Mawlaik (Мьянма) (127 км)
Погода в Lumding (Assam, Индия) (140 км)
Погода в Aijal (Mizoram, Индия) (159 км)
Погода в Lengpui (Mizoram, Индия) (160 км)
Погода в Kalewa (Мьянма) (168 км)
Погода в Falam (Мьянма) (196 км)

Пояснения к столбцам:

Ветер - указаны скорость ветра в м/с - средняя за 10 мин, порывы в срок и между сроками (в фигурных скобках) и направление, откуда дует ветер: С - северный, СВ - северо-восточный, В - восточный, ЮВ - юго-восточный, Ю - южный, ЮЗ - юго-западный, З - западный, СЗ - северо-западный.
Видимость - горизонтальная дальность видимости в метрах или километрах. При видимости от 1 до 10 км при отсутствии осадков обычно наблюдается дымка, при ухудшении видимости до 1 км и менее - туман. В сухую погоду видимость может ухудшаться дымом, пылью или мглою.
Явления - указаны атмосферные явления, наблюдавшиеся в срок или в последний час перед сроком; фигурными скобками обозначены явления, наблюдавшиеся между сроками (за 1-3 часа до срока); квадратными скобками обозначены град или гололедные отложения с указанием их диаметра в мм.
Облачность - указаны через наклонную черту общая и нижняя облачность в баллах и высота нижней границы облаков в метрах; квадратными скобками обозначены формы облаков: Ci - перистые, Cs - перисто-слоистые, Cc - перисто-кучевые, Ac - высококучевые, As - высокослоистые, Sc - слоисто-кучевые, Ns - слоисто-дождевые, Cu - кучевые, Cb - кучево-дождевые. Подробнее классификацию облаков см. в Атласе облаков (PDF).
T - Температура воздуха - температура, измеренная на высоте 2 м над землей.
Td - Температура точки росы - температура, при понижении до которой содержащийся в воздухе водяной пар достигнет насыщения.
f - Относительная влажность воздуха - влажноcть воздуха, измеренная на высоте 2 м над землей.
Te - Эффективная температура - температура, которую ощущает одетый по сезону человек в тени. Характеристика душности погоды. При расчете учитывается влияние влажности воздуха и скорости ветра на теплоощущения человека.
Tes - Эффективная температура на солнце - температура, которую ощущает человек, с поправкой на солнечный нагрев. Характеристика знойности погоды. Зависит от высоты солнца над горизонтом, облачности и скорости ветра. Ночью, в пасмурную погоду, а также при ветре 12 м/с и более поправка равна нулю.
P - Атмосферное давление - приведенное к уровню моря атмосферное давление.
Po - Атмосферное давление - измеренное на уровне метеостанции атмосферное давление.
Tmin - Минимальная температура - минимум температуры воздуха на высоте 2 м над землей.
Tmax - Максимальная температура - максимум температуры воздуха на высоте 2 м над землей.
R - Количество осадков - Количество выпавших осадков за период времени, мм. При наведении курсора мыши на число - период времени, за который выпало указанное количество осадков.
R24 - Количество осадков - Количество выпавших осадков за 24 часа, мм.
S - Снежный покров - Высота снежного покрова, см. При наведении курсора мыши на число - состояние снежного покрова и степень покрытия местности в баллах.